Location: Azul
(36.7830°S, 59.8500°W)
Time: 01:15:21
(UTC-03:00)

NOAA 15 - Pass Details

Date: 31 October 2021
Orbit: 797 x 813 km, 98.7° (Epoch: 30 November)

Event Time Altitude Azimuth Distance (km) Brightness Sun altitude
Rises 20:05:56 0° 158° (SSE) 3,344 7.8 -7.2°
Reaches altitude 10° 20:08:27 10° 150° (SSE) 2,408 7.0 -7.7°
Maximum altitude 20:13:23 38° 82° (E) 1,227 5.1 -8.6°
Drops below altitude 10° 20:18:17 10° 14° (NNE) 2,388 6.7 -9.4°
Sets 20:20:45 0° 6° (N) 3,313 7.5 -9.9°
